Flag for U.S.A. Weather past 2 weeks in Centennial, Colorado, U.S.A.

Now
68 °F

Scattered clouds.


Feels Like: 68 °F
Forecast: 41 / 74 °F
Wind: 8 mph from East

Location: Centennial Airport

Current Time: Mar 30, 2015 at 6:14:48 PM

Latest Report: Mar 30, 2015 at 5:53 PM


Visibility: 10 mi

Pressure: 29.99 "Hg

Humidity: 15%

Dew point: 18 °F

Location of CentennialLocation

Historic Weather in Centennial — Graph

°F

Centennial temperature yesterday

Maximum temperature yesterday: 63 °F (at 5:53 PM)
Minimum temperature yesterday: 40 °F (at 6:53 AM)
Average temperature yesterday: 52 °F

Past Weeks' High & Low Weather Summary

 TemperatureHumidityPressure
High78 °F (Mar 16, 1:53 PM)100% (Mar 19, 8:53 AM)30.35 "Hg (Mar 19, 8:53 AM)
Low28 °F (Mar 26, 6:53 AM)8% (Mar 15, 4:53 PM)29.65 "Hg (Mar 23, 4:53 PM)
Average50 °F45%30.03 "Hg
* Reported Mar 15 4:53 PM — Mar 30 4:53 PM, Centennial, Weather by CustomWeather, © 2015

Note: Actual official high and low records may vary slightly from our data, if they occured in-between our weather recording intervals... More about our weather records

Advertising

Centennial weather history for previous 24 hours

 ConditionsComfort  
Time TempWeatherWind HumidityBarometerVisibility
4:53 PM
Mon, Mar 30
71 °FScattered clouds.22 mph10%29.94 "Hg10 mi
3:53 PM71 °FPassing clouds.10 mph10%29.98 "Hg10 mi
2:53 PM70 °FPassing clouds.N/A9%29.98 "Hg10 mi
1:53 PM71 °FPassing clouds.5 mph12%30.01 "Hg10 mi
12:53 PM69 °FScattered clouds.3 mph11%30.03 "Hg10 mi
11:53 AM67 °FScattered clouds.5 mph15%30.05 "Hg10 mi
10:53 AM62 °FBroken clouds.5 mph17%30.09 "Hg10 mi
9:53 AM58 °FPartly sunny.6 mph20%30.09 "Hg10 mi
8:53 AM53 °FBroken clouds.5 mph35%30.11 "Hg10 mi
7:53 AM42 °FPartly sunny.6 mph53%30.12 "Hg10 mi
6:53 AM42 °FPassing clouds.No wind39%30.08 "Hg10 mi
5:53 AM38 °FClear.8 mph53%30.06 "Hg10 mi
4:53 AM47 °FClear.9 mph34%30.02 "Hg10 mi
3:53 AM40 °FClear.7 mph49%30.05 "Hg10 mi
2:53 AM43 °FClear.9 mph47%30.06 "Hg10 mi
1:53 AM44 °FClear.8 mph45%30.08 "Hg10 mi
12:53 AM47 °FPassing clouds.7 mph41%30.10 "Hg10 mi
11:53 PM
Sun, Mar 29
48 °FPassing clouds.12 mph41%30.10 "Hg10 mi
10:53 PM50 °FPassing clouds.15 mph35%30.11 "Hg10 mi
9:53 PM52 °FPassing clouds.14 mph32%30.11 "Hg10 mi
8:53 PM51 °FPassing clouds.13 mph35%30.11 "Hg10 mi
7:53 PM54 °FScattered clouds.16 mph31%30.11 "Hg10 mi
6:53 PM59 °FScattered clouds.13 mph26%30.09 "Hg10 mi
Weather by CustomWeather, © 2015

See weather overviewHow to use our weather pages